Reflectivity
-11 -17 -20 -20 -20 -20 -20 -20 -20 -20 -20 -20 -20 -20 -20 -20 -20 -20 -20 -20 -20 -20 -20 -20 -20 -20 -20 -20 -20 -20 -20 -20 -20 -20 -20 -20 -20 -20 -20 -20 -20 -20 -20
8 -16 -20 -20 -20 -20 -20 -20 -20 -20 -20 -20 -20 -20 -20 -20 -20 -20 -20 -20 -20 -20 -20 -20 -20 -20 -20 -20 -20 -20 -20 -20 -20 -20 -20 -20 -20 -20 -20 -20 -20 -20 -20
10 -16 -20 -20 -20 -20 -20 -20 -20 -20 -20 -20 -20 -20 -20 -20 -20 -20 -20 -20 -20 -20 -20 -20 -20 -20 -20 -20 -20 -20 -20 -20 -20 -20 -20 -20 -20 -20 -20 -20 -20 -20 -20
2 -13 -1 2 -20 -18 -20 -20 -20 -20 -20 -20 -20 -20 -20 -20 -20 -20 -20 -20 -20 -20 -20 -20 -20 -20 -20 -20 -20 -20 -20 -20 -20 -20 -20 -20 -20 -20 -20 -20 -20 -20 -20
14 2 6 9 10 9 1 -20 -20 -20 -20 -20 -20 -20 -20 -20 -20 -20 -20 -20 -20 -20 -20 -20 -20 -20 -20 -20 -20 -20 -20 -20 -20 -20 -20 -20 -20 -20 -20 -20 -20 -20 -20
10 -4 8 -19 -8 -14 3 -20 -20 -20 -20 -20 -20 -20 -20 -20 -20 -20 -20 -20 -20 -20 -20 -20 -20 -20 -20 -20 -20 -20 -20 -20 -20 -20 -20 -20 -20 -20 -20 -20 -20 -20 -20
5 23 -20 -17 34 11 9 -20 -20 -20 -20 -20 -20 -20 -20 -20 -20 -0 -20 -20 -20 -20 -20 -20 -20 -20 -20 -20 -20 -20 -20 -20 -20 -20 -20 -20 -20 -20 -20 -20 -20 -20 -20
20 17 32 30 33 30 25 19 2 -20 -14 -4 4 -20 -19 6 -4 -16 -20 -20 -20 -20 -20 -20 -20 -20 -20 -20 -20 -20 -20 -20 -20 -20 -20 -20 -20 -20 -20 -20 -20 -20 -20
7 18 30 29 30 22 24 29 11 -12 -18 -9 6 7 1 3 -15 -20 -20 -20 -20 -20 -20 -20 -20 -20 -20 -20 -20 -20 -20 -20 -20 -20 -20 -20 -20 -20 -20 -20 -20 -20 -20
23 33 31 28 31 37 14 22 12 16 -13 1 15 2 -8 10 -2 -19 -20 -20 -20 -20 -20 -20 -20 -20 -20 -20 -20 -20 -20 -20 -20 -20 -20 -20 -20 -20 -20 -20 -20 -20 -20
25 27 20 26 28 37 44 21 28 26 29 14 -8 8 10 16 7 -15 -20 -20 -20 -20 -20 -20 -20 -20 -20 -20 -20 -20 -20 -20 -20 -20 -20 -20 -20 -20 -20 -20 -20 -20 -20
-7 16 30 11 14 9 24 38 32 15 1 -17 -2 -4 -4 -3 -4 -12 -16 -20 -20 -20 -20 -20 -20 -20 -20 -20 -20 -20 -20 -20 -20 -20 -20 -20 -20 -20 -20 -20 -20 -20 -20
25 26 31 35 19 31 35 28 18 9 10 9 -17 -12 -2 9 0 -11 -9 -20 -20 -20 -20 -20 -20 -20 -20 -20 -20 -20 -20 -20 -20 -20 -20 -20 -20 -20 -20 -20 -20 -20 -20
26 33 27 29 26 34 27 17 11 4 -13 -8 7 6 -20 -20 -20 -20 -20 -20 -20 -20 -20 -20 -20 -20 -20 -20 -20 -20 -20 -20 -20 -20 -20 -20 -20 -20 -20 -20 -20 -20 -20
10 21 23 29 16 16 14 21 5 6 -15 -19 -14 -3 -20 -20 -20 -20 -20 -20 -20 -20 -20 -20 -20 -20 -20 -20 -20 -20 -20 -20 -20 -20 -20 -20 -20 -20 -20 -20 -20 -20 -20
-19 6 26 3 -8 -19 -20 -20 -15 -11 3 1 -12 -20 -20 -20 -20 -20 -15 -17 -20 -20 -20 -20 -20 -20 -20 -20 -20 -20 -20 -20 -20 -20 -20 -20 -20 -20 -20 -20 -20 -20 -20
-20 -20 -20 -20 -20 -20 -20 -16 -6 -10 -20 -20 -20 -20 20 -19 -20 -20 12 -20 -20 -20 -20 -20 -20 -20 -20 -20 -20 -20 -20 -20 -20 -20 -20 -20 -20 -20 -20 -20 -20 -20 -20
-20 -20 -20 -20 -20 -7 -8 -20 -14 -13 -20 -20 -20 -8 -20 -16 29 22 -20 -20 -20 -20 -20 -20 -20 -20 -20 -20 -20 -20 -20 -20 -20 -20 -20 -20 -20 -20 -20 -20 -20 -20 -20
-3 -20 -20 -20 -20 -20 -20 -20 -20 -20 -20 -11 -20 -20 1 24 23 -20 -0 -20 -20 -20 -20 -20 -20 -20 -20 -20 -20 -20 -20 -20 -20 -20 -20 -20 -20 -20 -20 -20 -20 -20 -20
-20 -20 -20 -20 -20 -20 -20 -20 -20 -20 -20 -20 16 22 -20 10 -20 -20 -20 -20 -20 -20 -20 -20 -20 -20 -20 -20 -20 -20 -20 -20 -20 -20 -20 -20 -20 -20 -20 -20 -20 -20 -20
-20 -20 -20 -20 -20 -20 -20 -20 -20 -20 -20 -20 -20 -20 -20 -20 -20 -20 -20 -20 -20 -20 -20 -20 -20 -20 -20 -20 -20 -20 -20 -20 -20 -20 -20 -20 -20 -20 -20 -20 -20 -20 -20
-20 -20 -20 -20 -20 -20 -20 -20 -20 -20 -20 3 -20 -9 22 -20 -20 -20 -20 -20 -20 -20 -20 -20 -20 -20 -20 -20 -20 -20 -20 -20 -20 -20 -20 -20 -20 -20 -20 -20 -20 -20 -20
-20 -20 -20 -20 -20 -20 -20 -20 -20 -20 -20 -20 2 -1 -20 -20 -20 -20 -20 -20 -20 -20 -20 -20 -20 -20 -20 -20 -20 -20 -20 -20 -20 -20 -20 -20 -20 -20 -20 -20 -20 -20 -20
-20 -20 -20 -20 -20 -20 -20 -20 -20 -20 -20 -20 21 -20 -20 -20 -20 -20 -20 -20 -20 -20 -20 -20 -20 -20 -20 -16 12 -3 -20 -20 -20 -20 -20 -20 -20 -20 -20 -20 -20 -20 -20
-20 -20 -20 -20 -20 -20 -20 -20 -20 -20 -17 25 20 21 -20 -20 -20 -20 -20 -20 -20 -20 -20 -20 -2 -11 -20 19 13 -20 -20 -20 -20 -20 -20 -20 -20 -20 -20 -20 -20 -20 -20
-20 -20 -20 -20 -20 -20 -20 -20 -6 -20 23 21 25 -17 -20 -20 -20 -20 -20 -20 -20 -20 -20 -20 -13 -20 -20 -10 1 -20 -20 -20 -20 -20 -20 -20 -20 -20 -20 -20 -20 -20 -20
Wind_Speed
18 19 17 17 18 19 21 22 22 22 22 21 21 19 20 21 19 17 19 17 17 19 19 18 19 19 19 20 19 20 18 17 17 18 19 19 19 19 19 18 16 18 19
19 21 18 17 18 19 20 21 21 22 22 21 21 21 20 19 19 16 18 17 18 18 17 16 16 18 19 20 19 19 18 17 17 17 16 19 18 18 18 18 17 17 19
19 21 20 18 18 19 20 20 21 21 21 21 21 21 20 19 18 17 17 17 17 18 18 17 17 18 20 18 17 17 18 16 15 15 12 12 14 18 18 17 17 17 17
20 19 20 19 19 19 19 20 20 20 21 20 20 21 20 19 18 17 18 17 17 19 20 21 21 20 19 17 17 17 18 16 14 10 11 11 13 17 17 17 17 17 14
18 17 20 20 20 21 20 21 21 21 19 20 19 20 19 19 19 17 18 16 17 18 22 22 22 20 17 16 15 16 16 15 11 11 12 11 11 14 17 16 15 15 16
16 16 19 20 22 22 21 21 21 21 20 19 20 20 19 18 18 16 17 16 17 17 20 21 20 18 16 15 15 15 14 12 9 11 11 11 12 14 16 16 15 15 15
13 14 19 20 24 21 21 21 21 21 20 18 18 18 19 17 16 14 16 16 16 17 18 19 17 17 15 15 14 13 12 9 10 10 10 10 11 14 15 15 16 15 16
13 12 15 15 22 22 20 18 20 19 20 16 16 15 16 16 14 14 15 14 15 16 17 17 16 15 14 13 12 11 9 8 8 9 9 8 11 13 14 14 15 15 16
13 9 8 11 12 17 17 13 18 17 20 17 15 15 14 12 12 13 14 15 14 14 15 16 15 14 14 13 12 12 10 9 8 6 7 6 10 11 12 13 14 14 14
12 10 9 15 13 7 11 17 12 13 16 18 17 15 12 12 11 12 13 14 15 15 16 17 16 15 15 14 13 11 9 7 8 6 6 7 8 9 10 12 12 13 13
7 10 13 17 10 9 5 12 11 11 16 18 17 14 9 7 9 10 11 14 16 17 17 17 18 17 17 16 15 12 7 5 6 5 4 8 7 8 9 10 10 12 12
12 10 13 14 11 9 4 4 7 9 8 10 11 11 7 8 7 9 10 14 17 17 17 18 17 15 10 7 6 8 6 7 6 5 5 11 4 6 8 8 9 10 11
15 13 13 9 7 12 9 5 4 4 6 7 10 8 7 6 6 5 6 6 8 11 8 9 9 7 9 6 7 7 6 6 4 4 7 11 9 3 7 6 8 9 9
14 16 16 7 10 7 7 5 5 5 6 6 7 8 7 5 6 5 5 6 7 6 9 8 6 9 10 10 9 8 7 5 4 4 5 10 7 5 7 5 6 6 6
19 17 18 15 6 4 6 5 5 5 5 6 6 7 6 7 7 6 6 6 7 7 7 7 7 8 8 8 8 8 9 7 5 3 3 11 5 3 5 5 4 3 4
16 17 15 11 7 6 7 7 6 6 6 6 6 7 8 6 6 6 8 8 7 7 7 7 7 6 6 7 8 7 6 5 6 6 5 8 15 15 12 8 6 4 1
13 14 13 9 7 9 8 8 6 6 7 6 6 6 6 7 8 9 7 7 7 7 10 7 7 6 6 5 7 5 4 6 7 7 6 5 6 11 11 9 7 6 5
14 13 12 9 8 8 7 6 6 7 6 6 4 5 8 9 10 9 8 8 8 7 7 6 6 6 4 4 4 5 4 5 5 5 5 4 4 3 4 8 8 8 9
14 15 14 11 10 10 8 5 6 7 5 5 5 5 8 10 10 9 8 8 8 6 6 5 5 4 4 3 3 3 3 4 4 3 3 3 4 4 3 5 8 8 10
14 12 11 9 10 9 6 6 5 5 4 4 5 6 9 9 12 10 8 9 8 7 6 5 6 4 3 3 1 2 2 5 3 1 1 1 2 1 1 3 4 4 7
14 13 13 12 12 10 8 6 5 5 5 4 4 7 10 10 11 9 8 9 7 7 7 7 6 5 3 1 3 2 3 5 4 3 2 3 2 2 3 3 4 5 5
15 15 13 13 13 12 8 7 5 6 5 4 4 6 9 10 10 9 10 9 8 7 8 7 6 3 1 2 2 1 1 4 7 7 4 4 4 2 3 4 6 7 6
16 17 14 14 14 12 11 8 5 6 4 4 6 7 8 9 10 10 10 8 8 6 6 6 5 5 4 4 3 3 2 1 4 2 5 4 5 3 4 5 7 6 6
15 13 13 13 14 13 14 11 12 10 9 7 8 6 7 8 10 9 10 9 9 6 7 5 4 4 3 3 3 4 4 2 3 5 3 4 5 6 6 7 7 7 6
15 15 14 14 14 13 13 12 10 10 6 6 6 9 8 8 9 10 10 10 9 7 8 9 6 4 1 2 3 3 4 3 5 6 8 5 4 6 7 8 7 5 3
13 13 13 15 14 14 14 14 14 12 9 6 7 8 8 8 8 10 11 10 10 10 9 5 7 6 5 4 3 3 4 4 4 5 7 8 9 8 7 6 7 4 2
Wind_Direction
155 152 144 141 133 127 121 119 120 118 117 117 115 112 107 105 105 105 106 104 105 105 103 103 102 100 98 95 89 86 81 79 79 78 74 71 68 65 61 53 56 63 60
147 152 147 143 132 129 125 122 120 119 118 118 116 111 108 109 110 114 110 110 107 106 105 104 107 108 104 100 94 92 86 78 73 71 76 78 69 68 66 60 49 58 57
144 149 149 142 137 132 127 124 120 119 119 119 118 114 115 115 114 115 111 106 103 104 107 109 125 117 108 100 96 92 89 83 78 75 74 73 67 62 62 61 61 56 58
146 152 151 144 140 134 128 124 121 123 125 124 121 117 117 117 116 117 112 108 106 107 104 106 117 117 107 99 95 94 92 89 84 89 78 73 72 63 60 57 53 51 54
145 151 149 144 141 136 134 132 131 128 125 124 123 120 120 118 117 116 113 108 106 106 104 108 113 111 103 97 95 91 91 88 87 86 79 71 68 63 60 54 55 57 51
139 151 147 147 143 139 136 133 129 126 124 126 124 120 121 118 113 115 110 109 102 106 110 113 112 108 103 102 97 94 94 90 90 77 78 78 69 66 60 57 55 52 51
138 152 154 156 145 134 129 127 123 121 124 123 123 121 117 115 109 107 107 102 101 100 102 109 109 104 105 104 102 100 98 89 87 80 76 72 72 68 62 58 55 54 53
134 158 155 153 134 122 119 123 121 124 113 116 110 112 110 110 111 110 104 108 103 99 99 105 109 107 106 104 103 97 88 94 92 86 75 71 72 69 67 63 58 56 58
97 93 105 96 107 125 120 117 114 128 121 117 109 99 97 102 108 107 108 108 106 107 102 94 90 89 90 97 95 90 84 75 90 81 76 67 75 73 71 64 60 63 61
106 108 108 105 90 337 126 107 101 114 108 109 102 101 108 104 104 98 103 102 103 107 102 99 95 91 88 85 84 74 70 77 80 87 76 78 80 75 71 65 67 67 65
89 108 106 112 128 117 66 99 86 111 119 115 113 116 113 122 116 115 100 103 106 101 101 101 94 89 87 80 75 71 58 63 76 62 58 30 78 76 75 70 68 65 58
94 95 110 107 111 107 123 100 142 137 123 116 124 127 127 126 123 119 107 105 97 103 100 95 90 86 86 87 86 72 67 59 61 61 62 16 52 84 84 74 70 62 60
119 105 92 103 134 138 177 156 112 120 122 115 123 128 129 128 123 121 124 112 122 109 100 96 95 89 93 91 78 66 62 59 52 47 42 15 2 47 96 86 76 64 58
131 131 131 161 147 157 138 122 135 136 124 128 135 143 142 136 135 131 126 133 118 102 104 92 96 96 87 86 83 80 68 55 48 36 32 6 2 353 124 103 97 85 54
142 144 152 176 186 151 124 141 141 139 146 140 143 155 146 153 147 136 137 129 118 122 107 119 108 96 94 82 71 69 63 54 52 43 52 37 44 30 119 96 60 136 92
158 164 172 181 175 160 162 163 152 143 149 157 159 165 174 161 144 135 143 127 135 122 122 111 108 101 92 90 75 64 66 59 61 60 71 68 56 61 62 56 34 16 72
160 167 184 197 183 174 178 160 157 155 156 177 181 179 180 155 150 144 128 140 129 123 118 109 101 95 98 96 88 66 86 90 79 70 71 74 85 62 52 41 22 7 329
177 191 197 195 184 173 173 166 163 163 175 177 180 167 167 154 156 145 152 137 137 136 121 112 112 105 109 105 89 55 101 106 79 63 61 56 57 40 55 30 24 8 348
199 195 195 191 189 178 165 165 165 165 172 163 163 171 157 160 159 152 147 140 145 130 118 128 113 124 109 83 66 60 149 153 121 86 83 67 43 17 10 53 18 13 356
196 195 191 185 182 164 152 156 162 166 171 166 177 177 161 168 162 151 147 142 145 135 129 127 125 98 78 38 335 344 178 180 159 130 122 142 24 12 16 345 330 340 342
199 196 192 179 177 165 160 165 176 175 178 185 185 168 172 167 161 151 155 150 154 147 132 132 122 131 106 49 246 197 197 202 220 242 270 241 234 168 328 323 317 320 313
200 202 194 196 180 183 177 176 179 177 187 183 172 172 189 166 163 166 155 156 154 138 142 154 151 139 122 238 298 279 227 186 228 242 241 250 186 293 312 302 318 308 310
203 199 199 195 190 188 188 164 125 127 122 156 181 180 179 169 165 165 157 153 151 151 154 158 148 156 185 193 234 318 261 266 304 204 222 242 222 286 293 296 316 304 304
207 201 200 193 192 190 186 187 183 191 184 196 185 178 169 164 167 161 155 156 156 151 153 141 152 172 176 224 184 212 250 287 300 291 225 264 230 275 279 298 315 319 310
194 195 195 194 195 189 192 197 197 197 190 161 173 165 167 166 168 164 164 159 156 158 154 153 153 157 105 235 228 204 236 232 243 266 293 292 260 273 287 289 299 304 281
187 188 190 195 198 189 192 194 203 203 182 162 179 177 182 173 167 172 167 166 160 153 154 151 149 162 188 201 218 226 249 268 279 274 281 289 289 292 290 283 288 285 264